Location: *
(51.5000°N, 0.1100°W)
Time: 19:12:52
(UTC+00:00)

CFOSAT - Visible Passes

Search period start: 03 October 2024 00:00
Search period end: 13 October 2024 00:00
Orbit: 515 x 518 km, 97.4° (Epoch: 03 October)

Date Brightness Start Highest point End Pass type
(mag) Time Alt. Az. Time Alt. Az. Time Alt. Az.
03 Oct ? 18:22:26 10° SSW 18:25:56 35° W 18:29:28 10° NNW visible
04 Oct ? 18:07:33 10° S 18:11:15 51° W 18:14:58 10° NNW visible
05 Oct ? 05:35:27 10° ENE 05:36:57 12° E 05:38:26 10° ESE visible
06 Oct ? 19:15:08 10° WSW 19:16:27 12° W 19:17:47 10° WNW visible
07 Oct ? 18:59:09 10° SW 19:01:34 16° W 19:03:58 10° NW visible
08 Oct ? 18:43:39 10° SW 18:46:39 22° W 18:49:41 10° NW visible
09 Oct ? 18:28:22 10° SSW 18:31:44 31° W 18:35:09 10° NNW visible
10 Oct ? 18:13:13 10° S 18:16:50 44° W 18:20:29 10° NNW visible
11 Oct ? 05:40:30 10° ENE 05:42:29 14° E 05:44:25 10° ESE visible
11 Oct ? 17:58:10 10° S 18:01:55 64° W 18:05:41 10° NNW visible
12 Oct ? 17:43:13 10° SSE 17:47:00 87° ENE 17:50:48 10° NNW visible
12 Oct ? 19:21:31 10° W 19:21:39 10° W 19:21:47 10° W visible
